Location: Milton
(43.5183°N, 79.8775°W)
Time: 13:22:38
(UTC+00:00)

SEEDS - Visible Passes

Search period start: 27 March 2023 00:00
Search period end: 06 April 2023 00:00
Orbit: 573 x 588 km, 97.6° (Epoch: 26 March)

Date Brightness Start Highest point End Pass type
(mag) Time Alt. Az. Time Alt. Az. Time Alt. Az.
27 Mar ? 08:52:41 10° NNE 08:56:37 39° E 08:58:45 22° SSE visible
27 Mar ? 10:28:43 10° NNW 10:31:40 19° WNW 10:34:38 10° WSW visible
28 Mar ? 08:57:45 10° NNE 09:01:46 45° E 09:04:06 22° SSE visible
28 Mar ? 10:34:01 10° NNW 10:36:45 17° WNW 10:39:28 10° WSW visible
29 Mar ? 09:02:48 10° NNE 09:06:53 51° E 09:09:25 21° SSE visible
30 Mar ? 09:07:51 10° NNE 09:11:59 59° E 09:14:43 20° S visible
31 Mar ? 09:12:53 10° NNE 09:17:04 68° ESE 09:19:59 19° S visible
01 Apr ? 09:17:56 10° NNE 09:22:07 78° ESE 09:25:15 17° S visible
02 Apr ? 09:22:57 10° NNE 09:27:09 88° E 09:30:29 16° SSW visible
03 Apr ? 09:27:58 10° N 09:32:10 81° WNW 09:35:42 14° SSW visible
04 Apr ? 08:00:59 10° E 08:01:21 10° E 08:01:43 10° E visible
04 Apr ? 09:32:59 10° N 09:37:09 71° WNW 09:40:53 12° SSW visible
05 Apr ? 08:04:54 10° ENE 08:06:23 12° E 08:07:51 10° ESE visible
05 Apr ? 09:37:59 10° N 09:42:07 62° WNW 09:46:04 11° SSW visible
